SCP
2 3 6 7 6 6 8 9 10 11 11 10 9 8 8 8 9 10 11 10 10 11 12 15 18 24 32 37 38 37 37 36 35 34 33 30 28 25 24 23 22 21 21
3 5 8 10 9 8 8 8 8 8 8 9 8 8 7 7 7 8 10 10 10 11 12 13 15 18 24 28 30 30 29 29 30 30 28 27 26 24 23 22 22 20 20
6 9 12 14 14 13 12 11 10 9 9 9 9 9 9 8 8 8 10 10 10 11 11 11 11 11 14 17 20 21 21 22 23 23 22 22 21 19 18 19 18 17 17
9 12 16 20 21 20 19 17 16 15 15 15 15 14 14 13 12 11 10 10 10 10 10 10 9 8 8 10 13 15 16 17 17 16 14 13 13 13 13 13 13 13 12
13 15 20 24 27 27 26 24 24 24 24 24 24 23 21 19 17 15 12 11 10 9 9 9 9 8 7 7 9 11 12 12 11 10 8 7 7 8 9 9 9 9 8
14 16 20 25 29 30 29 29 30 31 31 32 32 30 28 25 23 20 16 12 10 9 7 8 9 9 8 7 7 8 8 8 7 6 5 4 4 6 7 6 5 5 6
9 11 15 22 27 28 29 30 32 33 34 35 35 35 34 31 28 25 21 16 13 10 8 8 8 9 9 8 7 6 6 6 6 5 4 3 2 3 4 4 3 3 4
4 4 7 14 20 23 26 29 32 34 35 35 35 37 38 36 33 30 27 23 18 15 13 12 10 10 10 9 8 6 5 5 4 4 3 2 1 2 3 3 3 3 3
1 1 2 5 9 14 20 27 33 37 39 39 38 39 41 40 37 34 32 29 26 23 20 18 16 14 12 11 9 7 6 4 3 2 2 1 1 2 3 3 3 3 3
0 0 1 1 2 5 10 19 29 36 40 40 40 42 44 42 38 35 34 34 34 31 28 26 24 22 18 15 12 9 8 6 4 2 2 2 2 2 3 3 3 3 3
0 0 0 0 1 1 4 9 17 25 30 31 32 38 41 38 33 31 32 36 39 38 36 34 33 30 25 19 15 13 11 8 5 3 2 2 3 2 2 3 3 3 3
0 0 0 0 0 0 1 3 6 12 18 20 23 27 29 27 25 24 26 30 35 38 38 38 38 35 27 20 16 14 12 9 7 4 3 4 4 4 3 3 3 2 2
0 0 0 0 0 0 0 1 2 4 9 14 18 21 21 19 17 17 18 20 24 27 29 32 33 30 24 18 14 12 9 8 7 5 5 6 7 6 6 5 3 2 1
0 0 0 0 0 0 0 0 0 1 3 6 11 16 18 16 13 12 13 13 14 15 17 19 20 19 17 15 12 9 7 6 5 5 5 7 9 9 10 9 6 3 2
0 0 0 0 0 0 0 0 0 0 1 1 4 8 11 12 11 10 11 12 11 10 9 9 9 9 10 11 10 8 6 4 3 3 4 6 9 11 12 13 11 7 5
0 0 0 0 0 0 0 0 0 0 0 0 1 2 4 6 8 8 9 10 10 9 8 7 6 6 7 7 7 7 6 4 2 2 2 3 6 9 13 17 17 14 11
0 0 0 0 0 0 0 0 0 0 0 0 0 1 2 4 5 5 5 6 8 9 9 8 6 5 5 5 5 6 6 4 3 1 1 1 2 6 14 21 24 21 18
0 0 0 0 0 0 0 0 0 0 0 0 0 1 1 3 4 3 2 3 4 5 5 5 5 4 3 3 3 4 4 4 3 1 1 0 0 3 11 22 28 27 25
0 0 0 0 0 0 0 0 0 0 0 0 1 1 1 2 3 3 2 2 2 2 2 2 3 3 3 2 2 2 2 2 2 1 0 0 0 1 6 15 23 26 27
0 0 0 0 0 0 0 0 0 0 0 0 0 1 1 1 2 2 2 3 3 3 2 2 2 2 3 3 2 2 2 1 1 1 0 0 0 0 2 6 12 18 21
0 0 0 0 0 0 0 0 0 0 0 0 0 0 0 1 1 1 2 2 3 5 6 5 4 4 4 4 4 3 2 1 1 1 0 0 0 0 1 2 5 9 12
0 0 0 0 0 0 0 0 0 0 0 0 0 0 0 0 1 1 1 1 2 5 9 10 9 7 6 6 5 4 3 2 1 1 0 0 0 0 1 2 3 5 7
0 0 0 0 0 0 0 0 0 0 0 0 0 0 0 0 0 1 1 1 1 3 8 11 11 10 8 8 7 6 3 2 1 1 1 0 0 0 1 1 2 3 4
0 0 0 0 0 0 0 0 0 0 0 0 0 0 0 0 0 1 1 1 1 2 5 8 9 10 10 10 10 7 4 2 1 1 0 0 0 0 1 1 2 2 3
0 0 0 0 0 0 0 0 0 0 0 0 0 0 0 0 0 0 1 1 1 2 2 4 6 8 10 11 12 9 4 1 1 0 0 0 0 1 1 1 2 2 3
0 0 0 0 0 0 0 0 0 0 0 0 0 0 0 0 0 0 1 1 1 1 1 2 4 7 9 10 12 10 5 1 0 0 0 0 0 0 1 1 2 2 2
Wind_Speed
3 3 8 10 10 10 10 10 10 11 11 11 11 11 11 10 10 9 8 7 6 6 6 6 6 6 7 7 7 7 8 8 9 9 9 8 8 8 8 8 7 5 8
5 4 9 9 10 10 9 9 10 10 10 10 10 10 10 9 9 8 8 7 6 6 5 5 5 6 6 6 6 6 7 7 7 8 8 7 7 7 7 7 7 4 8
6 5 7 9 9 9 9 9 9 9 9 9 9 9 9 9 8 8 8 7 6 5 5 5 4 5 5 5 5 5 5 6 6 7 6 3 3 7 7 7 7 7 7
6 4 5 9 9 9 9 8 8 8 8 8 8 8 8 8 8 7 7 7 6 5 5 4 4 4 4 4 4 4 4 5 6 7 3 2 2 6 6 6 7 7 7
4 4 5 9 8 8 8 8 8 8 8 8 8 8 8 8 7 7 7 7 6 5 5 4 3 3 3 3 3 3 4 4 6 5 3 3 2 5 6 6 6 7 6
3 2 3 8 8 9 9 9 9 9 9 9 8 8 8 8 8 7 7 7 6 6 5 4 4 3 3 3 2 2 3 4 5 3 3 2 1 5 6 6 6 6 6
1 1 1 6 7 8 9 9 9 9 9 9 9 9 8 8 8 8 8 7 6 6 6 5 4 4 4 3 2 2 2 5 4 3 2 1 1 4 6 6 6 6 6
5 4 4 3 5 7 8 9 9 10 10 10 10 9 9 9 9 9 8 8 7 7 6 6 5 5 4 4 3 3 3 4 4 3 2 1 3 5 6 5 6 6 6
7 6 5 5 5 5 7 8 9 10 10 10 10 10 10 10 10 9 9 9 8 8 7 7 6 6 5 4 4 3 3 3 3 2 3 2 4 5 5 5 6 6 6
6 5 5 5 5 5 6 8 9 9 10 10 10 10 10 10 10 10 9 9 9 9 8 8 7 7 6 5 5 4 3 3 2 2 2 3 5 5 5 5 6 6 6
7 6 6 5 5 5 5 6 7 8 8 8 8 10 9 5 5 6 8 10 10 10 10 9 8 8 7 5 5 4 2 1 2 2 2 4 6 6 6 5 6 6 6
6 5 4 5 5 5 5 4 3 4 4 4 3 4 3 3 4 6 7 12 12 11 11 10 10 8 5 1 2 1 1 2 2 2 3 7 7 7 6 6 6 6 6
4 5 5 4 4 4 3 3 2 2 3 3 3 4 3 2 3 3 2 4 6 8 5 6 6 3 2 2 2 1 2 2 2 2 3 7 8 7 7 7 7 6 6
6 6 6 5 4 4 3 3 3 2 2 3 3 4 2 2 3 3 3 3 3 2 3 3 3 3 3 3 3 3 3 2 2 2 3 8 8 8 8 8 7 7 7
6 7 7 5 5 4 4 3 3 3 3 3 3 3 3 3 3 3 3 3 4 3 4 4 4 4 4 4 4 4 4 4 4 3 3 7 8 8 9 9 9 8 8
6 7 6 6 5 5 4 3 3 3 3 3 3 3 4 3 4 4 4 4 4 4 4 4 5 4 4 3 4 5 5 5 5 5 4 5 8 8 8 9 10 10 9
5 6 6 6 6 6 5 4 3 3 3 3 3 4 4 4 4 4 4 4 4 4 4 3 4 3 4 4 5 5 4 5 5 5 5 4 4 7 8 9 10 10 10
5 6 6 7 7 6 5 5 4 3 4 3 3 3 4 5 5 4 4 4 4 3 4 4 4 4 4 4 3 3 3 4 5 5 5 4 4 4 6 9 9 10 11
5 6 6 7 6 7 6 5 4 4 4 3 3 3 4 4 4 4 4 4 4 4 4 5 4 4 3 4 3 3 3 3 4 5 5 6 5 5 4 6 9 9 10
5 5 6 6 6 6 5 4 3 4 3 3 3 4 4 4 4 4 4 4 4 4 4 5 5 4 3 3 3 2 2 3 3 4 6 5 5 5 5 4 4 6 9
6 6 6 6 7 6 4 4 4 4 4 4 3 4 5 4 4 4 4 4 4 4 5 6 4 5 4 3 2 0 1 1 2 3 4 4 5 6 5 5 4 4 4
6 6 6 6 7 6 4 4 3 4 4 3 4 5 5 5 5 4 4 4 4 4 5 6 5 4 4 4 3 2 0 1 2 3 3 4 5 4 6 7 6 6 4
6 6 6 6 6 6 6 4 4 3 3 3 4 4 5 5 5 5 5 4 4 5 5 6 7 7 5 5 4 4 4 4 2 1 4 4 5 5 5 5 6 6 6
6 5 5 6 6 6 5 5 5 4 4 4 4 5 6 5 5 5 5 5 5 5 5 6 6 6 6 5 4 4 2 3 4 2 1 2 4 5 6 6 7 7 7
5 5 5 6 5 5 5 5 5 5 4 5 5 6 6 5 5 5 4 4 4 4 6 6 5 6 6 6 5 4 3 2 2 3 3 2 2 3 4 5 5 6 7
5 4 5 5 5 6 6 5 5 6 6 7 7 7 6 5 4 5 5 3 3 3 5 5 6 7 6 6 5 5 5 5 4 4 3 3 3 2 3 4 5 5 5
Wind_Direction
189 196 179 159 159 157 155 152 148 144 142 140 139 139 140 140 141 141 140 138 134 128 125 121 116 109 105 100 98 96 95 95 95 93 93 92 97 103 105 102 97 93 101
158 173 175 165 164 165 165 161 158 155 152 150 149 148 148 149 149 149 148 146 143 138 135 132 127 120 115 110 104 101 100 100 101 97 90 87 96 107 107 108 108 106 104
143 158 168 170 169 170 170 169 168 166 165 163 162 160 159 158 157 157 156 154 151 149 147 144 139 132 125 118 111 105 104 107 111 108 94 69 88 109 110 114 114 111 109
146 149 166 176 175 177 179 179 179 178 177 177 176 175 172 169 166 166 165 165 164 161 159 157 156 151 141 130 120 108 106 112 117 117 94 73 84 114 117 117 117 118 114
147 149 175 180 181 182 186 188 189 190 188 188 188 188 185 181 178 178 177 177 176 175 173 172 173 169 161 147 133 116 110 120 121 113 104 87 72 121 120 118 116 117 117
139 147 192 187 189 189 192 194 195 196 195 196 197 197 195 191 190 190 188 188 188 188 188 187 191 191 186 174 157 133 124 123 112 108 115 111 98 128 121 120 118 121 123
74 72 256 210 204 203 203 204 203 203 203 204 204 205 203 201 200 199 199 199 198 199 199 200 205 209 210 205 195 172 149 139 126 132 138 136 177 140 127 126 122 122 121
41 25 358 294 244 229 222 220 217 214 213 213 213 212 211 210 210 209 209 208 207 206 205 206 212 219 224 227 221 203 179 161 143 156 165 183 188 149 138 130 124 125 122
33 29 11 355 343 309 270 248 236 229 226 224 222 219 219 219 218 216 215 215 212 212 212 212 217 225 230 234 234 224 204 166 144 175 189 195 191 168 151 141 133 127 124
31 23 8 353 356 347 330 301 275 256 244 237 234 230 228 227 226 225 222 223 221 218 219 219 221 227 233 236 241 238 215 154 160 195 204 213 206 183 165 153 145 135 127
24 13 5 356 352 344 330 333 324 301 278 264 250 244 239 232 233 235 232 229 229 228 227 225 225 227 232 238 243 239 191 156 188 207 214 229 217 195 175 165 157 147 135
8 360 359 347 343 342 338 337 326 321 314 297 275 256 239 220 226 234 238 239 236 233 232 230 227 227 227 203 247 250 146 189 207 223 224 233 224 204 185 178 170 159 148
353 350 347 340 334 334 327 325 318 315 315 313 308 288 264 238 230 235 228 249 249 243 233 232 228 207 184 180 187 184 188 202 223 234 236 238 231 211 195 186 182 173 163
360 352 348 343 337 328 327 321 315 319 317 312 300 289 273 254 239 229 223 222 227 230 220 211 198 194 192 192 196 205 209 211 223 229 239 242 234 217 204 192 189 185 177
359 347 342 344 343 330 325 318 321 310 303 298 297 293 270 250 247 241 236 227 221 216 213 206 197 194 198 200 203 209 216 220 225 225 234 241 236 224 213 199 195 192 189
349 341 334 338 345 339 328 314 301 297 295 292 287 288 283 263 247 242 240 231 226 217 210 202 196 194 200 201 210 211 214 215 222 220 217 233 235 223 215 209 203 197 195
337 334 334 336 350 340 328 316 309 298 298 291 285 285 282 270 258 244 240 234 230 219 207 195 194 191 202 207 214 214 211 212 213 215 210 207 217 218 210 212 209 202 199
337 335 332 341 340 334 328 315 306 302 297 289 285 282 280 275 263 253 248 243 229 213 205 199 193 196 205 207 211 214 213 210 215 212 204 199 197 202 207 213 210 204 204
334 331 332 335 336 333 326 316 308 303 298 292 290 284 279 277 270 251 244 243 229 216 209 209 197 194 201 207 216 218 215 215 213 210 202 200 196 189 189 210 210 205 205
326 330 331 335 338 333 326 321 314 313 306 301 295 290 290 285 279 263 250 242 228 218 214 210 201 196 198 199 228 231 216 225 209 205 204 198 193 192 189 192 200 208 207
333 337 335 338 338 342 339 335 326 321 314 312 307 304 302 295 288 269 259 245 227 223 220 210 201 203 203 171 156 292 314 228 212 212 200 189 196 196 187 190 190 190 204
325 328 332 335 334 339 333 317 298 297 298 295 304 311 305 303 295 283 257 245 233 229 225 212 199 194 196 175 161 140 226 298 258 214 195 198 201 189 195 199 192 191 189
323 325 328 327 330 333 335 330 326 323 316 325 327 321 313 307 298 284 270 253 239 228 227 218 206 198 201 191 179 163 169 203 214 227 210 201 191 192 200 193 196 195 192
312 319 322 325 330 334 341 348 349 343 331 319 315 307 309 305 300 293 278 259 245 235 232 226 216 206 197 194 192 195 174 154 160 193 234 201 197 200 200 199 200 199 194
312 322 325 332 333 336 343 346 344 338 322 316 317 320 322 319 314 311 295 275 254 241 235 229 222 213 205 196 184 176 173 169 162 160 186 191 202 212 201 199 193 195 196
317 324 333 338 332 336 342 345 346 338 333 336 337 337 333 326 321 326 317 295 277 259 245 233 223 217 214 205 196 183 173 170 180 171 167 174 192 205 198 196 195 194 193